Tracking 19145 objects as of 26-Apr-2018
HD Live streaming from Space Station
objects crossing your sky now

BIRD BB

Track BIRD BB now!
10-day predictions
BIRD BB is classified as:


NORAD ID: 42823
Int'l Code: 1998-067MX
Perigee: 375.6 km
Apogee: 382.6 km
Inclination: 51.6 °
Period: 92.0 minutes
Semi major axis: 6750 km
RCS: Unknown
Launch date: November 20, 1998
Source: (BGD)
Launch site: TYURATAM MISSILE AND SPACE COMPLEX (TTMTR)
Uplink (MHz):
Downlink (MHz): 437.375
Beacon (MHz): 437.372
Mode: 1k2AFSK 9k6GMSK CW
Call sign: JG6YJS
Status: Active

aabbcc
Your satellite tracking list
Your tracking list is empty




NASA's NSSDC Master Catalog

Two Line Element Set (TLE):
1 42823U 98067MX  18115.49731126  .00024028  00000-0  24019-3 0  9993
2 42823  51.6356 268.8866 0005201 345.0387  15.0454 15.65450306 45574
Source of the keplerian elements: AFSPC